• In Kazakhstan
  • List of Countries
  • For 7 days
  • Water Temperature
  • Satellite Maps
  • Weather Map
  • News
  • Weather Widgets
  • user-avatar
    Login

    Hourly Weather New Haven

    Today, 25 November, Saturday

    Time Temperature Precipitation Wind Pressure Humidity
    00:00 +4°C° 0 mm 3 mps 759 mmHg 73%
    01:00 +4°C° 0 mm 3 mps 759 mmHg 74%
    02:00 +4°C° 0 mm 3 mps 758 mmHg 74%
    03:00 +4°C° 0 mm 3 mps 758 mmHg 74%
    04:00 +4°C° 0 mm 3 mps 757 mmHg 75%
    05:00 +4°C° 0 mm 3 mps 757 mmHg 75%
    06:00 +4°C° 0 mm 3 mps 757 mmHg 75%
    07:00 +4°C° 0 mm 3 mps 756 mmHg 75%
    08:00 +5°C° 0 mm 3 mps 756 mmHg 69%
    09:00 +7°C° 0 mm 4 mps 756 mmHg 62%
    10:00 +10°C° 0 mm 4 mps 755 mmHg 55%
    11:00 +11°C° 0 mm 4 mps 755 mmHg 53%
    12:00 +12°C° 0 mm 4 mps 754 mmHg 51%
    13:00 +12°C° 0 mm 4 mps 753 mmHg 48%
    14:00 +12°C° 0 mm 4 mps 753 mmHg 52%
    15:00 +11°C° 0 mm 4 mps 753 mmHg 57%
    16:00 +10°C° 0 mm 3 mps 752 mmHg 61%
    17:00 +10°C° 0 mm 3 mps 753 mmHg 64%
    18:00 +8°C° 0 mm 4 mps 753 mmHg 67%
    19:00 +8°C° 0 mm 4 mps 753 mmHg 70%
    20:00 +8°C° 0 mm 4 mps 753 mmHg 72%
    21:00 +8°C° 0 mm 4 mps 753 mmHg 75%
    22:00 +8°C° 0 mm 4 mps 753 mmHg 77%
    23:00 +7°C° 0 mm 4 mps 753 mmHg 78%

    Tomorrow, 26 November, Sunday

    Time Temperature Precipitation Wind Pressure Humidity
    00:00 +7°C° 0 mm 4 mps 753 mmHg 79%
    01:00 +7°C° 0 mm 4 mps 753 mmHg 81%
    02:00 +6°C° 0 mm 4 mps 754 mmHg 77%
    03:00 +5°C° 0 mm 4 mps 754 mmHg 74%
    04:00 +3°C° 0 mm 5 mps 754 mmHg 71%
    05:00 +3°C° 0 mm 5 mps 755 mmHg 71%
    06:00 +3°C° 0 mm 6 mps 755 mmHg 71%
    07:00 +2°C° 0 mm 6 mps 756 mmHg 71%
    08:00 +3°C° 0 mm 6 mps 756 mmHg 65%
    09:00 +3°C° 0 mm 7 mps 757 mmHg 58%
    10:00 +4°C° 0 mm 7 mps 758 mmHg 52%
    11:00 +3°C° 0 mm 7 mps 758 mmHg 50%
    12:00 +3°C° 0 mm 7 mps 758 mmHg 47%
    13:00 +3°C° 0 mm 7 mps 758 mmHg 44%
    14:00 +3°C° 0 mm 7 mps 758 mmHg 46%
    15:00 +2°C° 0 mm 6 mps 759 mmHg 47%
    16:00 +1°C° 0 mm 6 mps 759 mmHg 49%
    17:00 +1°C° 0 mm 5 mps 760 mmHg 52%
    18:00 0°C° 0 mm 5 mps 760 mmHg 55%
    19:00 -1°C° 0 mm 4 mps 760 mmHg 58%
    20:00 -1°C° 0 mm 4 mps 761 mmHg 59%
    21:00 -1°C° 0 mm 4 mps 761 mmHg 61%
    22:00 -1°C° 0 mm 4 mps 761 mmHg 63%
    23:00 -1°C° 0 mm 4 mps 761 mmHg 63%

    Day after tomorrow, 27 November, Monday

    Time Temperature Precipitation Wind Pressure Humidity
    00:00 -1°C° 0 mm 5 mps 760 mmHg 64%
    01:00 0°C° 0 mm 5 mps 760 mmHg 65%
    02:00 0°C° 0 mm 5 mps 760 mmHg 65%
    03:00 0°C° 0 mm 5 mps 760 mmHg 66%
    04:00 0°C° 0 mm 5 mps 760 mmHg 66%
    05:00 +1°C° 0 mm 5 mps 760 mmHg 67%
    06:00 +1°C° 0 mm 5 mps 760 mmHg 67%
    07:00 +1°C° 0 mm 5 mps 761 mmHg 68%
    08:00 +3°C° 0 mm 6 mps 761 mmHg 63%
    09:00 +4°C° 0 mm 6 mps 761 mmHg 59%
    10:00 +7°C° 0 mm 6 mps 761 mmHg 54%
    11:00 +7°C° 0 mm 6 mps 761 mmHg 52%
    12:00 +8°C° 0 mm 6 mps 761 mmHg 49%
    13:00 +8°C° 0 mm 6 mps 761 mmHg 47%
    14:00 +7°C° 0 mm 5 mps 761 mmHg 49%
    15:00 +7°C° 0 mm 5 mps 762 mmHg 52%
    16:00 +6°C° 0 mm 4 mps 762 mmHg 54%
    17:00 +5°C° 0 mm 4 mps 763 mmHg 57%
    18:00 +4°C° 0 mm 4 mps 764 mmHg 61%
    19:00 +2°C° 0 mm 3 mps 765 mmHg 64%
    20:00 +2°C° 0 mm 3 mps 765 mmHg 65%
    21:00 +2°C° 0 mm 2 mps 766 mmHg 67%
    22:00 +2°C° 0 mm 2 mps 766 mmHg 68%
    23:00 +2°C° 0 mm 1 mps 766 mmHg 69%

    28 November, Tuesday

    Time Temperature Precipitation Wind Pressure Humidity
    00:00 +2°C° 0 mm 1 mps 767 mmHg 70%
    01:00 +2°C° 0 mm 1 mps 767 mmHg 71%
    02:00 +2°C° 0 mm 1 mps 767 mmHg 71%
    03:00 +1°C° 0 mm 0 mps 767 mmHg 71%
    04:00 +1°C° 0 mm 0 mps 767 mmHg 71%
    05:00 +1°C° 0 mm 0 mps 768 mmHg 71%
    06:00 +3°C° 0 mm 1 mps 768 mmHg 72%
    07:00 +3°C° 0 mm 1 mps 768 mmHg 73%
    08:00 +5°C° 0 mm 1 mps 768 mmHg 69%
    09:00 +6°C° 0 mm 2 mps 768 mmHg 65%
    10:00 +8°C° 0 mm 3 mps 768 mmHg 61%
    11:00 +9°C° 0 mm 3 mps 768 mmHg 59%
    12:00 +11°C° 0 mm 4 mps 767 mmHg 58%
    13:00 +12°C° 0 mm 5 mps 766 mmHg 57%
    14:00 +12°C° 0 mm 4 mps 766 mmHg 59%
    15:00 +11°C° 0 mm 4 mps 766 mmHg 61%
    16:00 +10°C° 0 mm 4 mps 765 mmHg 64%
    17:00 +10°C° 0 mm 4 mps 766 mmHg 65%
    18:00 +9°C° 0 mm 5 mps 766 mmHg 67%
    19:00 +8°C° 0 mm 5 mps 766 mmHg 68%
    20:00 +8°C° 0 mm 5 mps 765 mmHg 69%
    21:00 +8°C° 0 mm 5 mps 765 mmHg 69%
    22:00 +8°C° 0 mm 5 mps 765 mmHg 70%
    23:00 +8°C° 0 mm 5 mps 764 mmHg 68%

    29 November, Wednesday

    Time Temperature Precipitation Wind Pressure Humidity
    00:00 +8°C° 0 mm 5 mps 764 mmHg 66%
    01:00 +8°C° 0 mm 5 mps 763 mmHg 64%
    02:00 +8°C° 0 mm 5 mps 763 mmHg 65%
    03:00 +7°C° 0 mm 5 mps 763 mmHg 65%
    04:00 +7°C° 0 mm 5 mps 763 mmHg 66%
    05:00 +7°C° 0 mm 5 mps 763 mmHg 67%
    06:00 +7°C° 0 mm 5 mps 763 mmHg 68%
    07:00 +7°C° 0 mm 5 mps 763 mmHg 70%
    08:00 +8°C° 0 mm 5 mps 764 mmHg 67%
    09:00 +9°C° 0 mm 5 mps 764 mmHg 64%
    10:00 +12°C° 0 mm 5 mps 765 mmHg 61%
    11:00 +12°C° 0 mm 4 mps 765 mmHg 57%
    12:00 +12°C° 0 mm 4 mps 764 mmHg 53%
    13:00 +13°C° 0 mm 4 mps 764 mmHg 49%
    14:00 +12°C° 0 mm 3 mps 765 mmHg 51%
    15:00 +11°C° 0 mm 3 mps 765 mmHg 52%
    16:00 +10°C° 0 mm 3 mps 765 mmHg 54%
    17:00 +8°C° 0 mm 3 mps 766 mmHg 57%
    18:00 +7°C° 0 mm 2 mps 766 mmHg 60%
    19:00 +6°C° 0 mm 2 mps 767 mmHg 64%
    20:00 +6°C° 0 mm 2 mps 767 mmHg 66%
    21:00 +5°C° 0 mm 2 mps 767 mmHg 68%
    22:00 +5°C° 0 mm 2 mps 767 mmHg 70%
    23:00 +4°C° 0 mm 2 mps 767 mmHg 71%

    30 November, Thursday

    Time Temperature Precipitation Wind Pressure Humidity
    00:00 +4°C° 0 mm 2 mps 767 mmHg 73%
    01:00 +3°C° 0 mm 2 mps 766 mmHg 74%
    02:00 +3°C° 0 mm 2 mps 766 mmHg 74%
    03:00 +4°C° 0 mm 1 mps 766 mmHg 73%
    04:00 +4°C° 0 mm 1 mps 766 mmHg 73%
    05:00 +4°C° 0 mm 1 mps 766 mmHg 75%
    06:00 +3°C° 0 mm 1 mps 765 mmHg 77%
    07:00 +3°C° 0 mm 1 mps 765 mmHg 80%
    08:00 +5°C° 0 mm 1 mps 765 mmHg 74%
    09:00 +7°C° 0 mm 1 mps 764 mmHg 68%
    10:00 +9°C° 0 mm 1 mps 764 mmHg 63%
    11:00 +9°C° 0 mm 2 mps 763 mmHg 62%
    12:00 +9°C° 0 mm 2 mps 762 mmHg 62%
    13:00 +10°C° 0 mm 3 mps 761 mmHg 62%
    14:00 +10°C° 0 mm 3 mps 760 mmHg 66%
    15:00 +10°C° 0 mm 3 mps 760 mmHg 70%
    16:00 +10°C° 0 mm 3 mps 759 mmHg 74%
    17:00 +9°C° 0 mm 3 mps 758 mmHg 76%
    18:00 +9°C° 0 mm 3 mps 758 mmHg 78%
    19:00 +9°C° 0 mm 3 mps 758 mmHg 81%
    20:00 +9°C° 0 mm 3 mps 757 mmHg 83%
    21:00 +9°C° 0 mm 3 mps 756 mmHg 85%
    22:00 +9°C° 0 mm 3 mps 756 mmHg 87%
    23:00 +9°C° 0 mm 3 mps 755 mmHg 88%
    Show more